This is the latest recevied weather packets stored in our database for station/object K1WJY. If no packets are shown the sender has not sent any weather packets the latest 10 day(s).
| Time | Temp. | Humidity | Pressure | Rain* | Wind** | Luminosity | Snow |
|---|---|---|---|---|---|---|---|
| 1787777195 | 25.56° C | 66% | 1018.2 hPa | 0 mm | - | 108 W/m² | - |
| 1787776894 | 25.56° C | 64% | 1017.9 hPa | 0 mm | - | 99 W/m² | - |
| 1787776593 | 26.67° C | 62% | 1018.3 hPa | 0 mm | - | 100 W/m² | - |
| 1787776292 | 26.67° C | 62% | 1018.3 hPa | 0 mm | - | 364 W/m² | - |
| 1787775990 | 26.11° C | 64% | 1018.1 hPa | 0 mm | - | 376 W/m² | - |
| 1787775686 | 26.67° C | 62% | 1018.1 hPa | 0 mm | - | 113 W/m² | - |
| 1787775384 | 26.11° C | 62% | 1018 hPa | 0 mm | - | 114 W/m² | - |
| 1787775079 | 26.67° C | 62% | 1018 hPa | 0 mm | - | 437 W/m² | - |
| 1787774778 | 27.78° C | 59% | 1018 hPa | 0 mm | - | 103 W/m² | - |
| 1787774473 | 28.33° C | 56% | 1018 hPa | 0 mm | - | 459 W/m² | - |
| 1787774172 | 28.33° C | 57% | 1018.2 hPa | 0 mm | - | 471 W/m² | - |
| 1787773871 | 27.22° C | 56% | 1018.2 hPa | 0 mm | - | 490 W/m² | - |
| 1787773569 | 27.22° C | 55% | 1018 hPa | 0 mm | - | 508 W/m² | - |
| 1787773266 | 27.78° C | 48% | 1018.2 hPa | 0 mm | - | 113 W/m² | - |
| 1787772961 | 28.89° C | 47% | 1018.3 hPa | 0 mm | - | 120 W/m² | - |
| 1787772656 | 28.89° C | 46% | 1017.9 hPa | 0 mm | - | 571 W/m² | - |
| 1787772354 | 29.44° C | 45% | 1018.2 hPa | 0 mm | - | 585 W/m² | - |
| 1787772055 | 28.89° C | 47% | 1018.2 hPa | 0 mm | - | 594 W/m² | - |
| 1787771754 | 30° C | 47% | 1018.2 hPa | 0 mm | - | 611 W/m² | - |
| 1787771453 | 29.44° C | 48% | 1018 hPa | 0 mm | - | 609 W/m² | - |
| 1787771152 | 28.89° C | 48% | 1018 hPa | 0 mm | - | 618 W/m² | - |
| 1787770849 | 28.33° C | 51% | 1017.9 hPa | 0 mm | - | 613 W/m² | - |
| 1787770547 | 28.89° C | 52% | 1018.1 hPa | 0 mm | - | 610 W/m² | - |
| 1787770246 | 28.33° C | 51% | 1018.2 hPa | 0 mm | - | 626 W/m² | - |
| 1787769945 | 28.89° C | 52% | 1018.1 hPa | 0 mm | - | 152 W/m² | - |
* Rain latest hour (hover to see other rain measurements)
** Current wind speed in m/s (hover to see current wind gust speed)